Location: Chanteloup
(48.8560°N, 2.7390°E)
Time: 22:41:50
(UTC+00:00)

Cosmos 2322 Rocket - Pass Details

Date: 04 June 2022
Orbit: 833 x 851 km, 71.0° (Epoch: 06 July)

Event Time Altitude Azimuth Distance (km) Brightness Sun altitude
Rises 21:42:38 0° 237° (WSW) 3,371 5.3 -13.4°
Reaches altitude 10° 21:45:18 10° 247° (WSW) 2,441 4.7 -13.6°
Maximum altitude 21:50:20 34° 311° (NW) 1,361 4.0 -14.0°
Drops below altitude 10° 21:55:25 10° 15° (NNE) 2,456 5.3 -14.4°
Sets 21:58:07 0° 25° (NNE) 3,395 5.9 -14.6°
